Preview of NWS' New Version of Forecast
This preview is not operational and should not be used for support decisions.
Latest weather observations around

Lansing Municipal Airport (KIGQ)

Using English Units (Switch to International System of Units)
Date/ Time (CDT) Wind (mph) Vis. (mi) Weather Sky Cond. Temp (°F) Rel. Humidity Wind Chill (°F) Heat Index (°F) Pressure Precip. (in)
Air Dwpt 6 hour Altimeter (inHg) Sea level (inHg) 1 hr 3 hr 6 hr
Max Min
Jun 18 23:55 Calm 7 Clear CLR 61 61     99%     29.87        
Jun 18 23:35 Calm 10 Clear CLR 61 61     98%     29.87        
Jun 18 23:15 Calm 10 Clear CLR 61 60     97%     29.87        
Jun 18 22:55 Calm 10 Clear CLR 61 60     96%     29.88        
Jun 18 22:35 Calm 7 Clear CLR 62 61     96%     29.88        
Jun 18 22:15 Calm 7 Clear CLR 62 61     97%     29.88        
Jun 18 21:55 E 3 7 Clear CLR 62 61     97%     29.87        
Jun 18 21:35 Calm 10 Clear CLR 62 60     93%     29.87        
Jun 18 21:15 NNE 3 10 Clear CLR 63 60     91%     29.86        
Jun 18 20:55 Calm 10 Clear CLR 63 60     90%     29.86        
Jun 18 20:35 E 3 10 Clear CLR 64 61     88%     29.87        
Jun 18 20:15 ENE 5 10 Clear CLR 66 61     84%     29.87        
Jun 18 19:55 NE 6 10 Clear CLR 68 61     79%     29.86        
Jun 18 19:35 NNE 6 7 Clear CLR 69 61     75%     29.87        
Jun 18 19:15 NNE 8 10 Clear CLR 71 62     73%   71 29.87        
Jun 18 18:55 NNE 6 10 Clear CLR 72 62     71%   72 29.87        
Jun 18 18:35 Calm 10 Clear CLR 72 62     72%   72 29.87        
Jun 18 18:15 Calm 10 Clear CLR 73 62     68%   74 29.87        
Jun 18 17:55 Calm 10 Clear CLR 73 63     73%   73 29.88        
Jun 18 17:35 Calm 10 Clear CLR 74 63     69%   74 29.88        
Jun 18 17:15 Calm 10 Clear CLR 75 64     68%   76 29.88        
Jun 18 16:55 Calm 10 Clear CLR 75 65     71%   75 29.88        
Jun 18 16:35 Calm 10 Partly Cloudy SCT030 75 64     70%   75 29.89        
Jun 18 16:15 Calm 10 Clear CLR 75 64     70%   75 29.9        
Jun 18 15:55 Calm 7 Partly Cloudy SCT030 75 65     72%   76 29.9        
Jun 18 15:35 Calm 10 Partly Cloudy SCT028 74 64     72%   74 29.91        
Jun 18 15:15 Calm 10 Partly Cloudy SCT028 74 65     73%   75 29.91        
Jun 18 14:55 Calm 10 Partly Cloudy SCT029 73 64     73%   73 29.92        
Jun 18 14:35 NNE 7 10 Mostly Cloudy BKN029 75 66     73%   76 29.92        
Jun 18 14:15 Calm 10 Mostly Cloudy BKN027 BKN032 74 63     69%   74 29.93        
Jun 18 13:55 Calm 10 Clear CLR 74 64     72%   74 29.94        
Jun 18 13:35 Calm 10 Partly Cloudy SCT022 72 63     73%   72 29.95        
Jun 18 13:15 Calm 10 Partly Cloudy SCT018 71 64     79%   72 29.95        
Jun 18 12:55 Calm 10 Mostly Cloudy BKN016 71 65     80%   71 29.96        
Jun 18 12:35 Calm 10 Cloudy OVC014 69 63     83%     29.97        
Jun 18 12:15 Calm 10 Cloudy OVC014 69 63     83%     29.97        
Jun 18 11:55 E 3 10 Cloudy OVC012 68 63     84%     29.97        
Jun 18 11:35 Calm 10 Cloudy OVC012 67 62     84%     29.98        
Jun 18 11:15 NNE 5 10 Cloudy OVC012 66 62     86%     29.99        
Jun 18 10:55 NNE 8 10 Cloudy OVC012 65 61     88%     29.99        
Jun 18 10:35 Calm 10 Cloudy OVC010 65 62     89%     29.98        
Jun 18 10:15 Calm 10 Cloudy OVC007 63 61     94%     29.98        
Jun 18 09:55 Calm 5 Fog/Mist OVC005 61 61     100%     29.98        
Jun 18 09:35 NNE 8 4 Fog/Mist OVC003 60 60     100%     29.98        
Jun 18 09:15 NNE 6 5 Fog/Mist OVC003 60 60     100%     29.98        
Jun 18 08:55 NNE 5 3 Fog/Mist OVC003 60 60     100%     29.98        
Jun 18 08:35 Calm 3 Fog/Mist OVC003 60 60     100%     29.98        
Jun 18 08:15 Calm 2.5 Fog/Mist OVC003 59 59     100%     29.98        
Jun 18 07:55 Calm 1.75 Fog/Mist OVC003 59 59     100%     29.98        
Jun 18 07:35 Calm 1 Fog/Mist OVC003 58 58     100%     29.98        
Jun 18 07:15 NNE 6 1 Fog/Mist OVC003 58 58     100%     29.98        
Jun 18 06:55 NE 5 0.25 Fog OVC003 57 57     100%     29.98        
Jun 18 06:35 Calm 0.5 Fog OVC003 57 57     100%     29.99        
Jun 18 06:15 Calm 0.75 Fog/Mist OVC003 56 56     100%     29.99        
Jun 18 05:55 Calm 0.75 Fog/Mist OVC003 56 56     100%     29.99        
Jun 18 05:35 Calm 2.5 Fog/Mist OVC005 56 56     100%     29.98        
Jun 18 05:15 Calm 2.5 Fog/Mist OVC003 56 56     100%     29.98        
Jun 18 04:55 Calm 1.25 Fog/Mist OVC003 56 56     100%     29.98        
Jun 18 04:35 Calm 0.5 Fog OVC003 56 56     100%     29.98        
Jun 18 04:15 Calm 0.5 Fog OVC003 56 56     100%     29.98        
Jun 18 03:55 Calm 0.5 Fog OVC003 56 56     100%     29.98        
Jun 18 03:35 Calm 0.25 Fog OVC003 55 55     100%     29.98        
Jun 18 03:15 Calm 0.25 Fog OVC003 55 55     100%     29.98        
Jun 18 02:55 Calm 0.5 Fog OVC003 55 55     100%     29.98        
Jun 18 02:35 Calm 1 Fog/Mist OVC003 55 55     100%     29.99        
Jun 18 02:15 Calm 3 Fog/Mist OVC003 55 55     100%     30        
Jun 18 01:55 Calm 3 Fog/Mist OVC003 55 55     100%     29.99        
Jun 18 01:35 Calm 3 Fog/Mist OVC003 55 55     100%     29.99        
Jun 18 01:15 Calm 2 Fog/Mist OVC003 55 55     100%     30        
Jun 18 00:55 Calm 2 Fog/Mist OVC003 55 55     100%     30        
Jun 18 00:35 Calm 2 Fog/Mist OVC003 55 55     100%     30        
Jun 18 00:15 ENE 3 2 Fog/Mist OVC003 55 55     100%     30        
Jun 17 23:55 NE 5 2.5 Fog/Mist OVC003 55 55     100%     30.01        
Jun 17 23:35 ENE 5 3 Fog/Mist OVC003 56 56     100%     30.01        
Jun 17 23:15 NE 7 3 Fog/Mist OVC003 56 56     100%     30.01        
Jun 17 22:55 Calm 3 Fog/Mist OVC005 56 56     100%     30.01        
Jun 17 22:35 Calm 4 Fog/Mist OVC005 57 56     99%     30.01        
Jun 17 22:15 NE 3 5 Fog/Mist BKN007 OVC025 57 56     97%     30        
Jun 17 21:55 Calm 7 Cloudy OVC025 57 56     96%     30.01        
Jun 17 21:35 Calm 7 Cloudy OVC025 57 56     96%     30        
Jun 17 21:15 Calm 7 Cloudy OVC023 58 56     96%     30        
Jun 17 20:55 NNE 5 7 Cloudy SCT010 OVC023 58 56     96%     30        
Jun 17 20:35 NNE 7 5 Fog/Mist OVC010 58 56     94%     30        
Jun 17 20:15 N 7 7 Cloudy OVC010 58 56     93%     30        
Jun 17 19:55 NNE 6 7 Cloudy OVC010 59 57     92%     30        
Jun 17 19:35 NNE 8 5 Fog/Mist OVC010 59 57     91%     30        
Jun 17 19:15 Calm 7 Cloudy OVC010 60 57     91%     29.99        
Jun 17 18:55 Calm 7 Cloudy OVC010 60 57     90%     29.99        
Jun 17 18:35 NNE 6 7 Cloudy OVC010 60 57     90%     29.99        
Jun 17 18:15 Calm 5 Fog/Mist OVC008 60 57     91%     29.99        
Jun 17 17:55 NE 7 7 Cloudy OVC010 60 57     91%     29.99        
Jun 17 17:35 NE 7 7 Cloudy OVC010 61 58     89%     29.99        
Jun 17 17:15 NNE 8 10 Cloudy OVC012 62 58     87%     29.99        
Jun 17 16:55 NNE 7 7 Mostly Cloudy BKN012 63 58     86%     29.99        
Jun 17 16:35 NNE 7 10 Mostly Cloudy BKN012 63 58     85%     29.99        
Jun 17 16:15 NE 9 7 Partly Cloudy SCT012 63 58     84%     29.99        
Jun 17 15:55 NNE 9 7 Partly Cloudy SCT012 63 59     85%     30        
Jun 17 15:35 N 7 7 Partly Cloudy SCT012 63 58     84%     30        
Jun 17 15:15 NNE 6 7 Mostly Cloudy BKN012 64 59     83%     30        
Jun 17 14:55 N 9 7 Partly Cloudy SCT016 64 59     83%     30        
Jun 17 14:35 NNE 8 7 Cloudy OVC016 64 59     85%     30        
Jun 17 14:15 NNE 8 7 Cloudy OVC016 64 59     84%     30.01        
Jun 17 13:55 N 8 5 Haze BKN016 OVC024 64 59     83%     30.01        
Jun 17 13:35 NNE 9 7 Cloudy SCT016 OVC024 66 60     81%     30.01        
Jun 17 13:15 NNE 6 7 Cloudy SCT014 OVC024 65 60     82%     30.01        
Jun 17 12:55 Calm 10 Mostly Cloudy BKN012 BKN024 66 61     83%     30.02        
Jun 17 12:35 Calm 10 Cloudy OVC012 64 59     84%     30.02        
Jun 17 12:15 N 7 10 Cloudy OVC012 63 59     86%     30.02        
Jun 17 11:55 NNE 9 10 Cloudy OVC010 63 59     87%     30.03        
Jun 17 11:35 NE 7 7 Cloudy OVC010 62 59     90%     30.02        
Jun 17 11:15 Calm 10 Cloudy OVC008 61 58     91%     30.02        
Jun 17 10:55 N 9 10 Cloudy OVC006 60 58     96%     30.02        
Jun 17 10:35 N 6 7 Cloudy OVC004 59 59     100%     30.02        
Jun 17 10:15 NNE 7 4 Fog/Mist OVC004 58 58     100%     30.02        
Jun 17 09:55 N 3 4 Fog/Mist OVC004 58 58     100%     30.01        
Jun 17 09:35 Calm 4 Fog/Mist OVC002 58 58     100%     30.01        
Jun 17 09:15 N 7 2.5 Fog/Mist OVC002 57 57     100%     30.01        
Jun 17 08:55 N 5 1.25 Fog/Mist OVC002 56 56     100%     30        
Jun 17 08:35 Calm 0.75 Fog/Mist OVC002 56 56     100%     30        
Jun 17 08:15 Calm 0.75 Fog/Mist OVC002 56 56     100%     30        
Jun 17 07:55 Calm 1.5 Fog/Mist OVC002 56 56     100%     29.99        
Jun 17 07:35 Calm 2.5 Fog/Mist OVC002 55 55     100%     29.99        
Jun 17 07:15 Calm 2 Fog/Mist OVC002 55 55     100%     29.98        
Jun 17 06:55 Calm 1.5 Fog/Mist OVC002 55 55     100%     29.99        
Jun 17 06:35 Calm 4 Fog/Mist OVC002 55 55     100%     29.98        
Jun 17 06:15 N 3 3 Fog/Mist OVC002 55 55     100%     29.97        
Jun 17 05:55 Calm 3 Fog/Mist OVC002 55 55     100%     29.96        
Jun 17 05:35 Calm 1.75 Fog/Mist OVC002 55 55     100%     29.95        
Jun 17 05:15 Calm 2 Fog/Mist OVC002 55 55     100%     29.95        
Jun 17 04:55 Calm 1.5 Fog/Mist OVC002 55 55     100%     29.94        
Jun 17 04:35 Calm 1.5 Fog/Mist OVC002 55 55     100%     29.94        
Jun 17 04:15 Calm 1 Fog/Mist OVC002 55 55     100%     29.94        
Jun 17 03:55 Calm 1.75 Fog/Mist OVC002 55 55     100%     29.94        
Jun 17 03:35 Calm 2.5 Fog/Mist OVC002 55 55     100%     29.94        
Jun 17 03:15 Calm 3 Fog/Mist OVC004 55 55     100%     29.94        
Jun 17 02:55 Calm 4 Fog/Mist OVC004 55 55     100%     29.93        
Jun 17 02:35 Calm 4 Fog/Mist OVC004 55 55     100%     29.93        
Jun 17 02:15 Calm 5 Fog/Mist OVC004 55 55     100%     29.93        
Jun 17 01:55 Calm 4 Fog/Mist OVC002 55 55     100%     29.94        
Jun 17 01:35 Calm 4 Clear   55 55     100%     29.94        
Jun 17 01:15 Calm 3 Clear   55 55     100%     29.94        
Jun 17 00:55 Calm 2 Clear   55 55     100%     29.94        
Jun 17 00:35 Calm 4 Fog/Mist OVC004 55 55     100%     29.94        
Jun 17 00:15 Calm 5 Fog/Mist OVC004 55 55     100%     29.94        
Jun 16 23:55 N 3 7 Cloudy OVC004 55 55     100%     29.94        
Jun 16 23:35 NNE 5 7 Cloudy OVC006 56 56     100%     29.94        
Jun 16 23:15 Calm 7 Cloudy OVC006 56 56     100%     29.94        
Jun 16 22:55 Calm 7 Cloudy OVC006 56 56     100%     29.94        
Jun 16 22:35 Calm 10 Cloudy OVC006 55 55     100%     29.94        
Jun 16 22:15 Calm 10 Cloudy OVC006 55 55     100%     29.94        
Jun 16 21:55 Calm 10 Cloudy OVC006 55 55     100%     29.94        
Jun 16 21:35 Calm 7 Cloudy OVC006 55 55     100%     29.93        
Jun 16 21:15 N 6 10 Cloudy OVC006 55 55     100%     29.92        
Jun 16 20:55 N 6 7 Cloudy OVC006 55 55     100%     29.91        
Jun 16 20:35 N 6 7 Cloudy OVC006 55 55     100%     29.9        
Jun 16 20:15 N 8 7 Cloudy OVC006 55 55     99%     29.91        
Jun 16 19:55 NNE 9 10 Cloudy OVC006 55 55     98%     29.91        
Jun 16 19:35 N 3 10 Cloudy OVC006 55 55     98%     29.89        
Jun 16 19:15 N 6 7 Cloudy OVC006 55 55     99%     29.89        
Jun 16 18:55 N 8 7 Cloudy OVC006 55 55     99%     29.89        
Jun 16 18:35 N 7 7 Cloudy OVC006 55 55     98%     29.89        
Jun 16 18:15 N 11 7 Cloudy OVC006 56 55     96%     29.88        
Jun 16 17:55 NNE 14 10 Cloudy BKN006 OVC038 57 55     92%     29.88        
Jun 16 17:35 NNE 9 10 Cloudy SCT010 OVC038 58 55     90%     29.89        
Jun 16 17:15 NE 10 10 Cloudy SCT017 OVC038 60 55     86%     29.89        
Jun 16 16:55 NNE 9 10 Mostly Cloudy BKN017 61 56     85%     29.88        
Jun 16 16:35 NNE 6 10 Cloudy BKN017 OVC025 60 56     85%     29.89        
Jun 16 16:15 NNE 5 10 Cloudy SCT019 SCT023 OVC038 61 56     85%     29.89        
Jun 16 15:55 N 6 10 Mostly Cloudy SCT025 SCT032 BKN038 62 57     84%     29.89        
Jun 16 15:35 ENE 7 10 Partly Cloudy SCT025 SCT038 62 57     84%     29.87        
Jun 16 15:15 NE 7 10 Partly Cloudy SCT021 62 57     85%     29.86        
Jun 16 14:55 NE 10 10 Cloudy OVC019 60 56     88%     29.84        
Jun 16 14:35 NNE 6 10 Cloudy OVC017 58 56     91%     29.86        
Jun 16 14:15 NE 3 10 Cloudy OVC017 59 57     91%     29.87        
Jun 16 13:55 NE 9 7 Cloudy OVC017 60 58     91%     29.87        
Jun 16 13:35 NNE 9 4 Fog/Mist SCT012 OVC019 64 60     89%     29.87        
Jun 16 13:15 Calm 4 Fog/Mist OVC010 65 62     91%     29.86        
Jun 16 12:55 Calm 3 Fog/Mist OVC010 66 63     92%     29.86        
Jun 16 12:35 NE 7 3 Fog/Mist OVC008 66 65     96%     29.84        
Jun 16 12:15 NE 5 2.5 Fog/Mist OVC008 66 66     100%     29.84        
Jun 16 11:55 Calm 2.5 Fog/Mist OVC006 65 65     100%     29.84        
Jun 16 11:35 Calm 2.5 Fog/Mist OVC006 65 65     100%     29.85        
Jun 16 11:15 Calm 3 Fog/Mist OVC004 65 65     100%     29.84        
Jun 16 10:55 Calm 2 Fog/Mist OVC004 64 64     100%     29.84        
Jun 16 10:35 Calm 3 Fog/Mist OVC004 64 64     100%     29.84        
Jun 16 10:15 Calm 2.5 Fog/Mist OVC002 63 63     100%     29.84        
Jun 16 09:55 Calm 0.75 Fog/Mist OVC002 62 62     100%     29.82        
Jun 16 09:35 Calm 0.75 Fog/Mist OVC002 61 61     100%     29.81        
Jun 16 09:15 Calm 1 Fog/Mist OVC002 60 60     100%     29.81        
Jun 16 08:55 Calm 1 Fog/Mist OVC002 60 60     100%     29.81        
Jun 16 08:35 Calm 1 Fog/Mist OVC002 60 60     100%     29.8        
Jun 16 08:15 Calm 0.5 Fog OVC002 59 59     100%     29.8        
Jun 16 07:55 Calm 0.25 Fog OVC002 59 59     100%     29.78        
Jun 16 07:35 Calm 0.25 Fog OVC002 58 58     100%     29.78        
Jun 16 07:15 Calm 0.25 Fog OVC002 58 58     100%     29.8        
Jun 16 06:55 Calm 0.5 Fog OVC002 58 58     100%     29.8       0
Jun 16 06:35 Calm 0.25 Fog OVC002 57 57     100%     29.79        
Jun 16 06:15 Calm 0.25 Fog OVC002 57 57     100%     29.77        
Jun 16 05:55 Calm 0.25 Fog OVC002 56 56     100%     29.76        
Jun 16 05:35 Calm 0.75 Fog/Mist OVC002 56 56     100%     29.75        
Jun 16 05:15 Calm 0.75 Fog/Mist OVC002 56 56     100%     29.74        
Jun 16 04:55 Calm 2.5 Fog/Mist OVC002 56 56     100%     29.75        
Jun 16 04:35 Calm 4 Fog/Mist OVC002 56 56     100%     29.73        
Jun 16 04:15 Calm 4 Fog/Mist OVC002 57 57     100%     29.71        
Jun 16 03:55 NNE 7 3 Fog/Mist OVC002 57 57     100%     29.7     0  
Jun 16 03:35 Calm 2.5 Fog/Mist OVC002 57 57     100%     29.72        
Jun 16 03:15 Calm 3 Fog/Mist OVC002 57 57     100%     29.73        
Jun 16 02:55 Calm 2.5 Fog/Mist OVC002 57 57     100%     29.73   0    
Jun 16 02:35 Calm 2 Light Rain OVC002 58 58     100%     29.72   0    
Jun 16 02:15 Calm 1.75 Heavy Rain OVC002 57 57     100%     29.68   0    
Jun 16 01:55 Calm 1.5 Rain OVC002 57 57     100%     29.73        
Jun 16 01:35 Calm 1.25 Light Rain OVC002 57 57     100%     29.74        
Jun 16 01:15 Calm 1.25 Thunderstorms and Rain OVC002 57 57     100%     29.75        
Jun 16 00:55 Calm 1.25 Fog/Mist OVC002 57 57     100%     29.76        
Jun 16 00:35 Calm 1 Fog/Mist OVC002 57 57     100%     29.77        
Jun 16 00:15 Calm 0.75 Fog/Mist OVC002 57 57     100%     29.77        
Notice The following observation data may not be complete
May 15 09:15   10 Partly Cloudy SCT017 SCT032          %              
May 14 23:15 SE 5 1.5 Cloudy BKN015 BKN024 OVC038 63 63     98%     29.85   0    
May 14 10:15 Calm 10 Cloudy OVC090 65 65     99%     29.98        
May 14 06:55   7 Cloudy BKN050 BKN065 OVC080 58 57     97%     30.01        
May 14 02:35 SE 3 7 Clear CLR 52 52     100%     29.92        
May 13 22:55 Calm 7 Mostly Cloudy BKN085 52 51     98%     29.99        
May 13 14:15 N 7 10 Partly Cloudy SCT080 64 57     78%     30.02        
May 13 12:35 NNE 5 7 Clear   63 58     82%     30.04        
May 13 12:15 NNE 7 7 Mostly Cloudy BKN100 62 57     83%     30.04        
Notice The following observation data may not be complete
May 13 09:15   4 Fog/Mist OVC005          %              
May 13 01:15 NE 8 3 Thunderstorms and Rain OVC003 50 50     100% 47   30.05        
May 12 23:35 NE 3 5 Fog/Mist OVC005 47 47     100% 46   30.04        
May 12 16:35 ENE 8 2 Clear   47 47     100% 43   30.04        
May 12 14:15 NNE 9 7 Cloudy OVC012 48 46     93% 44   30.11        
Notice The following observation data may not be complete
May 12 13:15   7 Cloudy OVC012          %              
May 12 12:35 NNE 11 10 Cloudy OVC010 50 47     90% 45   30.1        
May 12 03:35 NNE 13 10 Clear   47 45     93% 42   29.96        
May 12 01:55 NE 13 10 Cloudy OVC080 49 46     92% 44   29.95        
Notice The following observation data may not be complete
May 12 00:35   10 Cloudy OVC090          %              
May 11 23:35 NNE 6 10 Cloudy OVC090 51 47     89%     29.96        
May 11 22:55 NE 5 10 Cloudy SCT090 OVC120 50 47     90% 48   29.96        
May 11 22:35 NNE 6 10 Cloudy OVC120 50 47     90% 48   29.96        
May 11 21:55 NE 6 10 Cloudy OVC110 50 47     90% 47   29.96        
May 11 20:55 NE 10 10 Mostly Cloudy SCT070 BKN095 50 47     90% 46   29.94        
May 11 13:15 E 15 10 Clear CLR 58 51     76%     29.94        
Jun 12 07:35 W 13 10 Clear CLR 76 61     60%   76 29.99        
Jun 12 01:55 SSW 10 10 Clear CLR 73 58     58%   73 29.96        
Jun 11 21:15 S 14 10 Clear CLR 81 56     42%   81 29.89        
Notice The following observation data may not be complete
Jun 11 16:35   10 Clear CLR          %              
Jun 11 12:35 SW 18 10 Clear CLR 88 59     38%   88 29.96        
Notice The following observation data may not be complete
Jun 11 12:15   10 Clear CLR          %              
Jun 11 10:35 WSW 16 10 Clear CLR 84 60     44%   84 29.99        
Notice The following observation data may not be complete
Jun 11 02:35   10 Clear CLR          %              
Notice The following observation data may not be complete
Jun 10 20:15   10 Clear CLR          %              
Jun 10 17:55 SSW 23 10 Clear and Windy CLR 87 47     24%   84 29.81        
Jun 10 15:55   10 Clear CLR 89 47     24%   86 29.83        
Jun 10 15:15 SSW 23 7 Clear and Windy CLR 89 49     26%   86 29.83        
Jun 10 13:15   10 Clear CLR 87 49     28%   84 29.87        
Jun 10 10:55 SW 20 10 Clear and Windy CLR 82 53     37%   81 29.89        
Jun 10 08:15 SW 9 10 Clear CLR 71 56     59%   70 29.91        
Notice The following observation data may not be complete
Jun 09 23:15   10 Clear CLR          %              
Jun 09 18:55 NNE 8 10 Mostly Cloudy SCT085 BKN110 72 56     56%   72 29.8        
Notice The following observation data may not be complete
Jun 09 18:15   10 Mostly Cloudy SCT030 BKN085          %              
Jun 09 16:35 NE 13 10 Clear   83 55     38%   82 29.77        
Jun 09 16:15   10 Partly Cloudy SCT090 88 52     29%   86 29.76        
Jun 09 10:35 W 11 10 Clear CLR 80 54     40%   80 29.82        
Notice The following observation data may not be complete
Jun 09 09:15   10 Partly Cloudy SCT095          %              
Jun 09 06:55 NNW 9 10 Partly Cloudy SCT100 SCT120 68 50     53%     29.81        
Notice The following observation data may not be complete
Jun 09 04:35   10 Clear CLR          %              
Jun 09 00:15 Calm 10 Clear   64 49     57%     29.85        
Jun 08 23:15 S 7 10 Mostly Cloudy BKN100 65 49     55%     29.85        
Jun 08 18:55 WSW 6 10 Clear CLR 77 41     27%   76 29.86        
Notice The following observation data may not be complete
Jun 07 22:15   10 Clear CLR          %              
Notice The following observation data may not be complete
Jun 07 21:15   10 Clear CLR          %              
Jun 07 14:35 NE 9 10 Clear CLR 71 45     40%   70 30.11        
Jun 07 11:55 NNE 11 10 Clear CLR 69 48     48%     30.14        
Jun 07 10:55 NNE 11 10 Clear CLR 67 48     49%     30.15        
Notice The following observation data may not be complete
Jun 07 09:15   10 Clear CLR          %              
Jun 06 09:55 NNE 10 10 Clear CLR 63 48     59%     30.06        
Notice The following observation data may not be complete
Jun 06 09:15   10 Clear CLR          %              
Jun 06 04:35 N 7 10 Clear CLR 55 49     81%     29.99        
Jun 06 00:35 N 10 10 Clear CLR 57 45     64%     29.96        
Notice The following observation data may not be complete
Jun 05 19:15   10 Clear CLR          %